Location: Champignolles
(47.0543°N, 4.5663°E)
Time: 16:30:32
(UTC+00:00)

Cosmos 1500 - Pass Details

Date: 30 November 2020
Orbit: 498 x 519 km, 82.5° (Epoch: 28 January)

Event Time Altitude Azimuth Distance (km) Brightness Sun altitude
Rises 17:16:49 0° 0° (N) 2,636 6.6 -13.5°
Reaches altitude 10° 17:19:11 10° 12° (NNE) 1,748 5.6 -13.9°
Maximum altitude 17:22:31 28° 73° (ENE) 996 4.0 -14.4°
Drops below altitude 10° 17:25:52 10° 134° (SE) 1,745 5.6 -15.0°
Sets 17:28:12 0° 146° (SE) 2,630 6.6 -15.4°
